Regional Weather Roundup
Issued by NWS

Home | Current Version | Previous Version | Text Only | Print | Product List | Glossary On
Versions: 1 2 3 4 5 6 7 8 9 10 11 12 13 14 15 16 17 18 19 20 21 22 23 24 25 26 27
000
ASUS44 KLIX 280211
RWRLA
LOUISIANA WEATHER ROUNDUP
NATIONAL WEATHER SERVICE NEW ORLEANS LA
900 PM CDT WED JUL 27 2016

NOTE: "FAIR" INDICATES FEW OR NO CLOUDS BELOW 12,000 FEET WITH NO
      SIGNIFICANT WEATHER AND/OR OBSTRUCTIONS TO VISIBILITY.
      SKY/WX - SKY CONDITION AND SIGNIFICANT WEATHER.
      TMP - AIR TEMPERATURE.    DP   - DEWPOINT TEMPERATURE.
      RH  - RELATIVE HUMIDITY.  PRES - PRESSURE.
      HX  - HEAT INDEX.         WCI  - WIND CHILL INDEX.

*  THESE STATIONS ARE NOT NWS OR FAA STATIONS AND ARE NOT UNDER
   NWS QUALITY CONTROL.

LAZ040-048-061>063-065-066-069-280300-
SOUTHEAST LOUISIANA

CITY           SKY/WX    TMP DP  RH WIND       PRES   REMARKS
N.O. AUDUBON     N/A     82  73  72 MISG        N/A
N.O. INTL ARPT MOCLDY    82  73  74 S6        30.01R
N.O. LAKEFRONT CLEAR     81  71  71 SE6       30.01S
N.O. DOWNTOWN* FAIR      84  72  67 S5        30.02R
RESERVE*       FAIR      79  74  83 SE6       30.00S
SLIDELL        PTCLDY    76  74  93 CALM      30.00S
BATON ROUGE    PTCLDY    78  72  81 SE3       29.99R
BOOTHVILLE     CLEAR     80  76  87 CALM      30.03S
BELLE CHASSE   MOCLDY    76  74  93 CALM      30.01S
BOGALUSA*      FAIR      78  72  81 S3        30.03R
GALLIANO*      CLEAR     76  75  96 SE3       30.02R
NEW ROADS*     FAIR      76  74  93 SE6       30.00R
GONZALES*      FAIR      76  74  93 CALM      29.99R
HAMMOND*       PTCLDY    77  72  83 CALM      30.00S
HOUMA*         CLEAR     76  74  95 CALM      30.01R
PORT FOURCHON* CLEAR     81  73  78 E5        30.02S

$$

LAZ041-044-053-054-280300-
SOUTHWEST LOUISIANA

CITY           SKY/WX    TMP DP  RH WIND       PRES   REMARKS
LAKE CHARLES   MOCLDY    79  75  87 S5        29.98R
LAFAYETTE      CLOUDY    80  74  81 S6        30.00R
PATTERSON      PTCLDY    77  75  93 SE6       30.01R
SALT POINT       N/A     77  75  93 SE3       29.99R
NEW IBERIA     PTCLDY    77  74  90 S3        30.01R
CHENAULT AIRPK CLEAR     79  75  89 CALM      29.98R

$$

LAZ027-028-280300-
CENTRAL LOUISIANA

CITY           SKY/WX    TMP DP  RH WIND       PRES   REMARKS
FORT POLK      PTCLDY    79  74  83 S8        29.97R
ALEXANDRIA INT PTCLDY    76  74  93 SE5       29.96R
ALEXANDRIA     PTCLDY    75  75 100 CALM      29.98R

$$

LAZ001-002-280300-
NORTHWEST LOUISIANA

CITY           SKY/WX    TMP DP  RH WIND       PRES   REMARKS
SHREVEPORT     CLOUDY    77  76  96 SE8       29.91F
BARKSDALE AFB  CLOUDY    76  76 100 S6        29.92S
DTN SHREVEPORT MOCLDY    78  74  87 S7        29.92S

$$

LAZ014-016-280300-
NORTHEAST LOUISIANA

CITY           SKY/WX    TMP DP  RH WIND       PRES   REMARKS
MONROE         PTCLDY    77  74  90 SW5       29.95R
TALLULAH       CLOUDY    76  74  93 S3        29.95R

$$





USA.gov is the U.S. government's official web portal to all federal, state and local government web resources and services.